SCP
0 0 0 0 0 0 0 0 0 0 0 0 0 0 0 0 0 0 0 0 0 0
0 0 0 0 0 0 0 0 0 0 0 0 0 0 0 0 0 0 0 0 0 0
0 0 0 0 0 0 0 0 0 0 0 0 0 0 0 0 0 0 0 0 0 0
0 0 0 0 0 0 0 0 0 0 0 0 0 0 0 0 0 0 0 0 0 0
0 0 0 0 0 0 0 0 0 0 0 0 0 0 0 0 0 0 0 0 0 0
0 0 0 0 0 0 0 0 0 0 0 0 0 0 0 0 0 0 0 0 0 0
0 0 0 0 0 0 0 0 0 0 0 0 0 0 0 0 0 0 0 0 0 0
0 0 0 0 0 0 0 0 0 0 0 0 0 0 0 0 0 0 0 0 0 0
0 0 0 0 0 0 0 0 0 0 0 0 0 0 0 0 0 0 0 0 0 0
0 0 0 0 0 0 0 0 0 0 0 0 0 0 0 0 0 0 0 0 0 0
0 0 0 0 0 0 0 0 0 0 0 0 0 0 0 0 0 0 0 0 0 0
0 0 0 0 0 0 0 0 0 0 0 0 0 0 0 0 0 0 0 0 0 0
0 0 0 0 0 0 0 0 0 0 0 0 0 0 0 0 0 0 0 0 0 0
0 0 0 0 0 0 0 0 0 0 0 0 0 0 0 0 0 0 0 0 0 0
Wind_Speed_500mb
74 75 72 70 67 68 69 66 63 65 66 66 64 60 56 52 48 43 38 31 25 20
77 79 77 75 72 70 69 64 64 71 74 71 67 62 58 53 47 41 34 27 22 17
79 78 75 76 74 73 69 72 70 77 79 75 70 64 58 51 45 37 31 24 19 14
76 78 76 73 74 74 73 79 80 84 85 79 73 67 60 52 44 38 31 25 19 12
74 77 79 75 76 76 76 80 84 87 87 82 75 68 61 53 45 37 30 24 19 12
78 81 81 77 77 78 80 83 85 90 88 82 75 69 61 51 43 38 31 23 15 15
83 82 84 79 79 79 80 82 86 92 88 82 76 68 60 53 47 40 30 23 24 26
84 82 85 82 80 80 82 84 88 96 91 84 78 70 63 56 50 39 31 32 32 33
86 87 88 86 82 84 86 89 95 99 93 88 80 70 63 57 53 42 39 40 35 41
89 91 91 88 88 89 92 92 99 101 95 88 78 71 65 58 51 48 41 50 39 47
88 92 92 92 93 94 94 96 103 101 93 85 77 72 66 60 59 55 50 67 47 51
83 90 91 92 91 90 90 96 99 95 89 84 77 71 66 66 62 64 68 67 61 55
76 81 82 82 83 84 84 89 90 87 82 76 72 71 68 72 70 67 73 63 62 56
58 63 68 72 76 78 81 78 75 74 73 70 66 69 70 78 75 66 65 64 60 62
Wind_Direction_500mb
220 216 220 225 224 227 226 226 222 216 207 201 200 200 200 201 201 200 199 200 197 200
220 218 218 220 223 225 220 222 225 215 204 200 200 201 202 202 201 199 197 195 193 195
222 219 220 222 223 224 223 221 219 213 205 202 201 201 202 201 200 199 195 192 190 193
224 220 220 223 227 226 225 222 216 211 206 203 202 202 202 202 202 198 195 191 190 199
226 221 221 225 228 226 224 221 216 211 207 205 204 205 204 205 201 199 195 194 194 211
228 221 222 226 228 227 222 220 215 211 209 207 207 207 206 205 203 198 195 198 217 242
230 224 222 224 227 227 224 221 216 212 211 210 209 208 207 203 201 200 201 215 235 253
231 227 223 224 226 228 227 222 216 212 210 211 210 209 207 206 205 205 215 230 241 249
230 227 227 228 225 229 227 221 214 213 212 210 209 208 209 210 209 202 227 229 246 250
231 229 228 227 228 228 227 221 214 213 212 211 210 210 210 211 208 223 225 239 242 253
233 231 230 227 228 229 226 221 215 213 212 212 211 211 211 211 217 239 225 242 245 251
233 231 229 228 227 227 223 217 214 214 213 212 211 212 213 214 225 248 234 247 252 246
234 232 230 229 227 226 223 218 214 214 215 215 214 215 215 224 242 248 249 250 255 252
237 233 230 228 225 224 220 216 217 216 217 220 216 219 220 238 253 257 255 250 254 258
Wind_Speed_850mb
74 75 72 70 67 68 69 66 63 65 66 66 64 60 56 52 48 43 38 31 25 20
77 79 77 75 72 70 69 64 64 71 74 71 67 62 58 53 47 41 34 27 22 17
79 78 75 76 74 73 69 72 70 77 79 75 70 64 58 51 45 37 31 24 19 14
76 78 76 73 74 74 73 79 80 84 85 79 73 67 60 52 44 38 31 25 19 12
74 77 79 75 76 76 76 80 84 87 87 82 75 68 61 53 45 37 30 24 19 12
78 81 81 77 77 78 80 83 85 90 88 82 75 69 61 51 43 38 31 23 15 15
83 82 84 79 79 79 80 82 86 92 88 82 76 68 60 53 47 40 30 23 24 26
84 82 85 82 80 80 82 84 88 96 91 84 78 70 63 56 50 39 31 32 32 33
86 87 88 86 82 84 86 89 95 99 93 88 80 70 63 57 53 42 39 40 35 41
89 91 91 88 88 89 92 92 99 101 95 88 78 71 65 58 51 48 41 50 39 47
88 92 92 92 93 94 94 96 103 101 93 85 77 72 66 60 59 55 50 67 47 51
83 90 91 92 91 90 90 96 99 95 89 84 77 71 66 66 62 64 68 67 61 55
76 81 82 82 83 84 84 89 90 87 82 76 72 71 68 72 70 67 73 63 62 56
58 63 68 72 76 78 81 78 75 74 73 70 66 69 70 78 75 66 65 64 60 62
Wind_Direction_850mb
220 216 220 225 224 227 226 226 222 216 207 201 200 200 200 201 201 200 199 200 197 200
220 218 218 220 223 225 220 222 225 215 204 200 200 201 202 202 201 199 197 195 193 195
222 219 220 222 223 224 223 221 219 213 205 202 201 201 202 201 200 199 195 192 190 193
224 220 220 223 227 226 225 222 216 211 206 203 202 202 202 202 202 198 195 191 190 199
226 221 221 225 228 226 224 221 216 211 207 205 204 205 204 205 201 199 195 194 194 211
228 221 222 226 228 227 222 220 215 211 209 207 207 207 206 205 203 198 195 198 217 242
230 224 222 224 227 227 224 221 216 212 211 210 209 208 207 203 201 200 201 215 235 253
231 227 223 224 226 228 227 222 216 212 210 211 210 209 207 206 205 205 215 230 241 249
230 227 227 228 225 229 227 221 214 213 212 210 209 208 209 210 209 202 227 229 246 250
231 229 228 227 228 228 227 221 214 213 212 211 210 210 210 211 208 223 225 239 242 253
233 231 230 227 228 229 226 221 215 213 212 212 211 211 211 211 217 239 225 242 245 251
233 231 229 228 227 227 223 217 214 214 213 212 211 212 213 214 225 248 234 247 252 246
234 232 230 229 227 226 223 218 214 214 215 215 214 215 215 224 242 248 249 250 255 252
237 233 230 228 225 224 220 216 217 216 217 220 216 219 220 238 253 257 255 250 254 258